Location: Bellflower
(33.8817°N, 118.1170°W)
Time: 14:04:06
(UTC+00:00)

Cosmos 1606 - Pass Details

Date: 23 November 2020
Orbit: 503 x 527 km, 82.5° (Epoch: 21 January)

Event Time Altitude Azimuth Distance (km) Brightness Sun altitude
Exits shadow 12:57:07 13° 358° (N) 1,553 5.0 -19.7°
Maximum altitude 13:00:28 75° 83° (E) 535 2.8 -19.0°
Drops below altitude 10° 13:04:14 10° 169° (S) 1,721 5.6 -18.2°
Sets 13:06:20 0° 171° (S) 2,598 6.6 -17.8°
